SCP
0 0 0 0 0 0 0 0 0 0 0 0 0 0 0 0 0 0 0 0 0 0 0 0 0 0 0 0 0 0 0 0 0 0 0 0 0 0 0 0 0 0 0 0
0 0 0 0 0 0 0 0 0 0 0 -0 -0 0 0 -0 0 0 0 0 0 0 0 0 0 0 0 0 0 0 0 0 0 0 0 0 0 0 0 0 0 0 0 0
0 0 0 0 0 0 0 0 0 0 -0 0 -0 0 0 0 -0 0 0 0 0 0 0 0 0 0 0 0 0 0 0 0 0 0 0 0 0 0 0 0 0 0 0 0
0 0 0 0 0 0 0 0 0 0 0 0 -0 0 0 -0 -0 0 0 0 0 0 0 0 0 0 0 0 0 0 0 0 0 0 0 0 0 0 0 0 0 0 0 0
0 0 0 0 0 0 0 0 0 0 0 0 -0 -0 0 -0 -0 -0 -0 0 0 0 0 0 0 0 0 0 0 0 0 0 0 0 0 0 0 0 0 0 0 0 0 0
0 0 0 0 0 0 0 0 0 0 0 0 0 -0 -0 -0 -0 -0 -0 0 0 0 0 0 0 0 0 0 0 0 0 0 0 0 0 0 0 0 0 0 0 0 0 0
0 0 0 0 0 0 0 0 0 0 0 0 0 0 0 0 0 -0 -0 0 0 0 0 0 0 0 0 0 0 0 0 0 0 0 0 0 0 0 0 0 0 0 0 0
0 0 0 0 0 0 0 0 0 0 0 0 0 0 0 0 0 0 0 0 0 0 0 0 0 0 0 0 0 0 0 0 0 0 0 0 0 0 0 0 0 0 0 0
0 0 0 0 0 0 0 0 0 0 0 0 0 0 0 0 0 0 0 0 0 0 0 0 0 0 0 0 0 0 0 0 0 0 0 0 0 0 0 0 0 0 0 0
0 0 0 0 0 0 0 0 0 0 0 0 0 0 0 0 0 0 0 0 0 0 0 0 0 0 0 0 0 0 0 0 0 0 0 0 0 0 0 0 0 0 0 0
0 0 0 0 0 0 0 0 0 0 0 0 0 0 0 0 0 0 0 0 0 0 0 0 0 0 0 0 0 0 0 0 0 0 0 0 0 0 0 0 0 0 0 0
0 0 0 0 0 0 0 0 0 0 0 0 0 0 0 0 0 0 0 0 0 0 0 0 0 0 0 0 0 0 0 0 0 0 0 0 0 0 0 0 0 0 0 0
0 0 0 0 0 0 0 0 0 0 0 0 0 0 0 0 0 0 0 0 0 0 0 0 0 0 0 0 0 0 0 0 0 0 0 0 0 0 0 0 0 0 0 0
0 0 0 0 0 0 0 0 0 0 0 0 0 0 0 0 0 0 0 0 0 0 0 0 0 0 0 0 0 0 0 0 0 0 0 0 0 0 0 0 0 0 0 0
0 0 0 0 0 0 0 0 0 0 0 0 0 0 0 0 0 0 0 0 0 0 0 0 0 0 0 0 0 0 0 0 0 0 0 0 0 0 0 0 0 0 0 0
0 0 0 0 0 0 0 0 0 0 0 0 0 0 0 0 0 0 0 0 0 0 0 0 0 0 0 0 0 0 -0 0 0 0 0 0 0 0 0 0 0 0 0 0
0 0 0 0 0 0 0 0 0 0 0 0 0 0 0 0 0 0 0 0 0 0 0 0 0 0 0 0 0 0 0 0 0 0 0 0 0 0 0 0 0 0 0 0
0 0 0 0 0 0 0 0 0 0 0 0 0 0 0 0 0 0 0 0 0 0 0 0 0 0 0 0 0 0 0 0 0 0 0 0 0 0 0 0 0 0 0 0
0 0 0 0 0 0 0 0 0 0 0 0 0 0 0 0 0 0 0 0 0 0 0 0 0 0 0 0 0 0 0 0 0 0 0 0 0 0 0 0 0 0 0 0
0 0 0 0 0 0 0 0 0 0 0 0 0 0 0 0 0 0 0 0 0 0 0 0 0 0 0 0 0 0 0 0 0 0 0 0 0 0 0 0 0 0 0 0
0 0 0 0 0 0 0 0 0 0 0 0 0 0 0 0 0 0 0 0 0 0 0 0 0 0 0 0 0 0 0 0 0 0 0 0 0 0 0 0 0 0 0 0
0 0 0 0 0 0 0 0 0 0 0 0 0 0 0 0 0 0 0 0 0 0 0 0 0 0 0 0 0 0 0 0 0 0 0 0 0 0 0 0 0 0 0 0
0 0 0 0 0 0 0 0 0 0 0 0 0 0 0 0 0 0 0 0 0 0 0 0 0 0 0 0 0 0 0 0 0 0 0 0 0 0 0 0 0 0 0 0
0 0 0 0 0 0 0 0 0 0 0 0 0 0 0 0 0 0 0 0 0 0 0 0 0 0 0 0 0 0 0 0 0 0 0 0 0 0 0 0 0 0 0 0
0 0 0 0 0 0 0 0 0 0 0 0 0 0 0 0 0 0 0 0 0 0 0 0 0 0 0 0 0 0 0 0 0 0 0 0 0 0 0 0 0 0 0 0
0 0 0 0 0 0 0 0 0 0 0 0 0 0 0 0 0 0 0 0 0 0 0 0 0 0 0 0 0 0 0 0 0 0 0 0 0 0 0 0 0 0 0 0
0 0 0 0 0 0 0 0 0 0 0 0 0 0 0 0 0 0 0 0 0 0 0 0 0 0 0 0 0 0 0 0 0 0 0 0 0 0 0 0 0 0 0 0
Wind_Speed_500mb
16 28 21 19 16 10 9 10 8 10 11 26 17 15 26 33 37 34 37 40 49 53 54 56 55 55 50 48 40 34 29 21 20 10 6 13 40 35 54 54 64 88 95 109
9 8 5 28 21 13 8 6 13 4 16 14 21 28 29 32 24 25 36 41 39 45 48 52 51 53 48 47 45 39 32 26 21 15 13 2 16 24 44 48 37 43 73 103
11 13 18 7 11 12 7 9 11 8 16 3 11 22 32 37 24 26 33 36 38 40 41 44 46 47 47 45 42 39 35 29 23 19 16 8 5 9 24 34 49 62 48 83
8 14 8 10 6 6 12 18 18 20 14 20 29 34 38 35 19 26 27 33 34 35 36 36 38 37 39 40 38 37 35 34 30 24 23 18 10 8 11 20 32 39 59 70
1 3 15 5 7 11 11 15 11 15 18 28 21 25 27 9 11 22 24 28 31 29 31 31 32 33 36 35 35 35 37 39 36 30 26 22 19 15 13 15 15 19 26 46
4 0 9 10 6 15 12 9 15 27 19 16 4 5 8 7 19 20 20 25 26 29 27 25 27 28 31 34 33 36 41 40 36 32 28 25 20 20 21 20 22 19 17 19
9 9 17 11 22 17 9 10 20 30 29 23 11 25 26 27 26 24 21 22 23 22 20 20 23 26 27 29 33 35 34 34 33 33 31 25 21 16 17 23 23 22 21 19
4 1 16 27 15 14 13 15 17 23 26 34 37 36 34 30 26 24 23 21 18 16 15 17 20 23 26 28 32 31 30 29 29 28 30 27 21 18 15 11 16 17 17 19
18 13 5 64 31 31 30 22 20 17 19 25 30 36 30 30 27 25 25 23 18 15 13 13 17 21 22 25 29 30 28 27 27 25 22 25 27 23 22 14 11 11 10 12
7 10 25 52 62 62 57 56 43 29 25 27 32 32 31 29 28 26 25 23 20 17 13 12 14 16 20 23 24 25 26 27 27 25 23 18 22 27 27 29 22 17 13 11
13 34 48 41 26 16 29 41 45 46 40 30 30 35 33 31 29 26 27 26 23 21 17 16 18 18 21 21 20 21 22 23 23 23 22 20 14 18 21 25 27 31 19 14
15 18 15 10 10 21 25 29 19 23 26 26 29 33 32 34 29 30 27 27 27 24 22 19 20 21 23 24 22 21 19 19 20 21 20 18 15 9 5 7 7 11 15 16
9 8 18 33 46 40 27 23 25 25 24 27 28 32 37 40 35 32 31 29 27 25 25 22 21 17 19 18 18 18 17 17 17 16 15 15 15 13 10 8 8 7 9 11
52 50 44 33 12 19 20 29 29 29 28 29 33 38 40 42 41 38 33 25 27 29 26 21 17 12 15 14 15 17 17 17 19 17 15 13 13 15 15 15 12 9 9 10
37 40 45 45 39 32 28 31 33 33 30 33 35 39 37 38 41 37 28 28 32 32 24 21 18 13 15 16 17 18 19 17 18 19 17 17 14 15 16 15 15 14 11 10
23 27 30 38 34 36 35 35 37 34 30 32 35 34 29 30 31 32 29 32 35 31 22 25 21 18 20 20 21 22 23 22 21 23 20 18 17 17 18 17 16 15 13 12
43 45 40 41 36 31 35 29 32 30 30 32 31 29 28 26 26 29 34 34 36 33 29 31 25 24 26 26 27 28 27 25 23 27 24 22 21 20 19 20 20 18 15 10
44 45 43 42 35 27 24 26 26 28 30 29 28 25 26 25 25 21 20 27 36 39 37 34 30 29 30 30 29 29 30 29 28 27 26 25 24 23 22 21 21 18 17 16
39 40 39 38 33 26 23 22 23 24 27 27 27 25 23 24 22 21 20 20 24 31 30 29 30 33 33 30 31 32 32 32 31 31 31 31 30 29 26 24 24 23 22 23
45 40 37 34 33 30 25 22 22 22 24 27 24 23 22 21 22 21 21 21 21 22 27 30 32 32 33 33 33 34 39 41 40 37 35 34 29 27 27 26 26 25 24 25
40 37 36 35 33 29 26 24 22 22 23 24 24 22 21 19 19 20 21 23 22 24 27 29 32 35 37 38 38 37 37 36 36 34 32 31 27 27 28 27 28 31 30 27
35 34 38 35 33 29 27 25 22 22 23 24 25 25 25 24 24 25 26 28 26 29 33 35 36 38 38 34 33 32 26 24 25 25 27 27 27 28 30 31 28 26 29 32
34 38 33 34 32 26 26 23 21 22 24 25 24 23 23 22 23 26 27 26 30 29 30 31 32 30 28 31 35 39 38 37 38 37 36 33 35 36 36 35 33 32 28 27
35 29 26 26 28 28 25 21 21 22 23 21 19 19 21 22 22 22 24 25 25 24 27 30 27 25 27 36 39 42 42 42 42 42 41 42 44 44 44 41 40 39 40 40
25 21 23 25 25 22 21 22 21 20 18 17 17 19 19 21 23 22 26 29 29 29 34 35 30 27 40 45 45 45 46 47 47 48 49 49 48 49 49 48 49 49 51 52
19 18 16 15 14 20 22 20 18 16 16 15 13 15 18 20 21 24 27 29 32 31 31 32 32 33 37 45 52 56 57 58 57 56 55 55 53 51 50 50 51 52 54 55
18 18 19 20 21 20 18 16 15 13 13 11 12 14 15 20 21 24 28 29 29 31 33 34 35 36 39 41 43 44 46 48 49 51 51 52 53 53 53 53 52 52 52 52
Wind_Direction_500mb
249 266 266 246 254 186 175 208 169 253 233 281 284 276 309 332 337 344 348 354 359 0 2 10 15 20 24 27 29 35 42 51 58 71 44 196 223 222 215 216 218 215 221 230
292 294 330 292 290 174 194 213 277 266 280 225 268 303 308 330 330 337 345 353 354 356 3 5 12 11 15 22 27 33 41 46 53 66 59 219 234 215 219 228 217 242 223 229
273 318 311 313 208 197 222 201 177 235 236 260 295 307 316 322 319 331 339 349 350 355 357 6 8 6 9 16 23 31 37 44 46 62 64 64 58 225 225 223 239 247 228 211
279 334 3 241 207 197 220 251 222 263 264 255 273 300 304 309 296 322 334 338 345 352 352 6 6 5 9 13 19 29 36 39 42 50 56 61 68 74 155 191 209 228 231 241
359 215 287 287 201 194 167 286 221 224 257 270 288 308 308 298 280 316 323 330 337 346 349 359 5 7 8 12 15 21 34 39 39 41 48 54 73 84 98 114 177 195 215 218
103 310 258 235 184 137 118 281 215 208 234 239 270 334 263 286 306 313 314 325 332 346 348 352 9 10 8 14 15 20 22 29 35 39 43 50 59 79 90 107 118 130 155 182
211 244 280 234 149 137 83 246 197 210 236 234 194 250 292 299 304 306 310 321 327 335 343 356 12 14 16 17 24 23 19 14 27 42 43 40 53 71 98 103 113 121 121 133
140 307 289 154 128 162 219 197 220 220 248 252 269 285 283 288 294 298 301 309 315 323 340 357 10 14 15 19 25 21 20 18 16 30 43 43 45 62 78 91 109 110 107 111
186 220 202 182 226 238 261 249 241 247 280 272 275 280 285 282 287 293 295 299 304 311 329 346 359 3 8 13 18 18 16 17 23 23 28 42 44 48 60 70 78 74 85 86
34 265 242 246 249 260 273 272 260 268 285 274 278 288 283 277 281 286 291 289 287 291 301 320 330 343 350 0 7 9 11 13 18 22 27 28 49 52 55 50 52 49 48 57
264 281 280 275 271 288 279 280 268 257 268 275 280 283 281 278 277 278 279 281 275 278 284 297 306 324 330 338 349 355 359 5 12 15 22 27 29 53 53 58 57 48 41 51
224 237 225 251 296 304 288 293 252 244 255 277 281 287 281 275 275 272 270 272 268 270 277 286 298 312 314 320 329 333 342 349 0 9 10 15 21 22 13 32 35 51 49 48
268 271 255 273 292 296 277 260 236 249 263 272 283 285 278 272 268 266 266 264 266 265 265 279 291 302 302 327 333 331 331 332 337 349 355 357 2 7 5 336 319 320 328 343
254 268 282 287 282 301 270 250 250 256 265 276 284 287 283 273 265 262 261 264 259 257 260 269 271 287 299 322 327 330 332 327 324 324 331 338 342 341 343 344 341 337 320 333
257 261 269 275 277 282 274 256 249 262 272 281 289 293 287 280 265 262 256 245 249 253 252 251 258 270 289 305 315 322 324 319 313 308 310 309 316 319 322 326 330 333 336 329
272 273 268 266 274 271 263 255 256 264 273 286 295 295 289 284 267 253 243 241 246 246 238 242 254 267 278 288 299 308 313 312 308 301 300 299 300 299 300 306 310 316 323 329
267 269 271 272 272 273 264 262 256 264 277 288 296 291 286 281 278 261 249 247 248 245 239 243 249 256 271 282 287 293 300 303 299 295 297 293 293 292 288 288 291 297 296 297
275 272 273 272 271 271 261 251 252 267 281 290 292 286 283 281 279 276 270 252 246 246 241 246 248 254 264 270 276 281 285 288 288 286 287 290 290 288 281 274 273 278 276 269
283 276 276 267 255 254 250 245 255 268 281 289 287 285 280 278 278 273 265 260 251 243 242 243 250 257 260 265 273 276 278 280 280 280 283 285 284 280 280 276 268 266 269 273
284 274 272 257 241 245 246 247 256 270 280 286 283 281 280 273 273 271 262 257 254 252 246 252 260 259 260 267 270 267 269 272 274 276 279 282 278 272 270 273 274 268 260 262
283 274 270 253 244 242 242 246 257 271 278 282 279 277 275 273 270 269 267 264 260 259 260 260 261 264 268 273 274 272 271 269 268 270 272 275 270 262 263 265 265 263 262 259
282 277 271 252 240 240 241 246 257 267 276 279 277 274 271 268 269 270 270 273 269 267 268 269 269 270 272 274 272 279 276 266 267 267 265 265 263 267 267 267 266 270 267 262
281 277 263 244 241 241 237 247 259 270 279 282 277 272 271 273 272 275 278 278 279 278 278 275 273 276 276 272 268 268 271 272 272 268 266 266 268 268 268 264 267 270 268 265
284 272 255 235 230 231 238 248 260 273 279 275 269 270 275 278 278 282 284 285 284 278 274 281 287 286 281 271 267 266 267 268 268 269 268 268 269 269 269 270 266 264 265 268
273 255 241 237 236 236 233 246 262 271 270 262 267 274 276 280 286 287 285 288 288 283 281 279 278 272 264 268 268 267 266 266 266 267 269 270 268 267 267 266 265 264 266 268
263 255 245 237 227 226 238 254 264 268 265 266 268 274 280 285 290 292 294 295 296 295 289 290 285 279 267 260 262 265 268 270 271 270 270 270 270 268 267 266 264 264 264 266
246 236 229 223 223 233 247 257 263 263 259 272 285 280 287 296 297 297 299 301 299 297 294 292 288 283 281 280 276 274 272 270 269 270 268 266 266 267 267 267 267 267 266 265
Wind_Speed_850mb
16 28 21 19 16 10 9 10 8 10 11 26 17 15 26 33 37 34 37 40 49 53 54 56 55 55 50 48 40 34 29 21 20 10 6 13 40 35 54 54 64 88 95 109
9 8 5 28 21 13 8 6 13 4 16 14 21 28 29 32 24 25 36 41 39 45 48 52 51 53 48 47 45 39 32 26 21 15 13 2 16 24 44 48 37 43 73 103
11 13 18 7 11 12 7 9 11 8 16 3 11 22 32 37 24 26 33 36 38 40 41 44 46 47 47 45 42 39 35 29 23 19 16 8 5 9 24 34 49 62 48 83
8 14 8 10 6 6 12 18 18 20 14 20 29 34 38 35 19 26 27 33 34 35 36 36 38 37 39 40 38 37 35 34 30 24 23 18 10 8 11 20 32 39 59 70
1 3 15 5 7 11 11 15 11 15 18 28 21 25 27 9 11 22 24 28 31 29 31 31 32 33 36 35 35 35 37 39 36 30 26 22 19 15 13 15 15 19 26 46
4 0 9 10 6 15 12 9 15 27 19 16 4 5 8 7 19 20 20 25 26 29 27 25 27 28 31 34 33 36 41 40 36 32 28 25 20 20 21 20 22 19 17 19
9 9 17 11 22 17 9 10 20 30 29 23 11 25 26 27 26 24 21 22 23 22 20 20 23 26 27 29 33 35 34 34 33 33 31 25 21 16 17 23 23 22 21 19
4 1 16 27 15 14 13 15 17 23 26 34 37 36 34 30 26 24 23 21 18 16 15 17 20 23 26 28 32 31 30 29 29 28 30 27 21 18 15 11 16 17 17 19
18 13 5 64 31 31 30 22 20 17 19 25 30 36 30 30 27 25 25 23 18 15 13 13 17 21 22 25 29 30 28 27 27 25 22 25 27 23 22 14 11 11 10 12
7 10 25 52 62 62 57 56 43 29 25 27 32 32 31 29 28 26 25 23 20 17 13 12 14 16 20 23 24 25 26 27 27 25 23 18 22 27 27 29 22 17 13 11
13 34 48 41 26 16 29 41 45 46 40 30 30 35 33 31 29 26 27 26 23 21 17 16 18 18 21 21 20 21 22 23 23 23 22 20 14 18 21 25 27 31 19 14
15 18 15 10 10 21 25 29 19 23 26 26 29 33 32 34 29 30 27 27 27 24 22 19 20 21 23 24 22 21 19 19 20 21 20 18 15 9 5 7 7 11 15 16
9 8 18 33 46 40 27 23 25 25 24 27 28 32 37 40 35 32 31 29 27 25 25 22 21 17 19 18 18 18 17 17 17 16 15 15 15 13 10 8 8 7 9 11
52 50 44 33 12 19 20 29 29 29 28 29 33 38 40 42 41 38 33 25 27 29 26 21 17 12 15 14 15 17 17 17 19 17 15 13 13 15 15 15 12 9 9 10
37 40 45 45 39 32 28 31 33 33 30 33 35 39 37 38 41 37 28 28 32 32 24 21 18 13 15 16 17 18 19 17 18 19 17 17 14 15 16 15 15 14 11 10
23 27 30 38 34 36 35 35 37 34 30 32 35 34 29 30 31 32 29 32 35 31 22 25 21 18 20 20 21 22 23 22 21 23 20 18 17 17 18 17 16 15 13 12
43 45 40 41 36 31 35 29 32 30 30 32 31 29 28 26 26 29 34 34 36 33 29 31 25 24 26 26 27 28 27 25 23 27 24 22 21 20 19 20 20 18 15 10
44 45 43 42 35 27 24 26 26 28 30 29 28 25 26 25 25 21 20 27 36 39 37 34 30 29 30 30 29 29 30 29 28 27 26 25 24 23 22 21 21 18 17 16
39 40 39 38 33 26 23 22 23 24 27 27 27 25 23 24 22 21 20 20 24 31 30 29 30 33 33 30 31 32 32 32 31 31 31 31 30 29 26 24 24 23 22 23
45 40 37 34 33 30 25 22 22 22 24 27 24 23 22 21 22 21 21 21 21 22 27 30 32 32 33 33 33 34 39 41 40 37 35 34 29 27 27 26 26 25 24 25
40 37 36 35 33 29 26 24 22 22 23 24 24 22 21 19 19 20 21 23 22 24 27 29 32 35 37 38 38 37 37 36 36 34 32 31 27 27 28 27 28 31 30 27
35 34 38 35 33 29 27 25 22 22 23 24 25 25 25 24 24 25 26 28 26 29 33 35 36 38 38 34 33 32 26 24 25 25 27 27 27 28 30 31 28 26 29 32
34 38 33 34 32 26 26 23 21 22 24 25 24 23 23 22 23 26 27 26 30 29 30 31 32 30 28 31 35 39 38 37 38 37 36 33 35 36 36 35 33 32 28 27
35 29 26 26 28 28 25 21 21 22 23 21 19 19 21 22 22 22 24 25 25 24 27 30 27 25 27 36 39 42 42 42 42 42 41 42 44 44 44 41 40 39 40 40
25 21 23 25 25 22 21 22 21 20 18 17 17 19 19 21 23 22 26 29 29 29 34 35 30 27 40 45 45 45 46 47 47 48 49 49 48 49 49 48 49 49 51 52
19 18 16 15 14 20 22 20 18 16 16 15 13 15 18 20 21 24 27 29 32 31 31 32 32 33 37 45 52 56 57 58 57 56 55 55 53 51 50 50 51 52 54 55
18 18 19 20 21 20 18 16 15 13 13 11 12 14 15 20 21 24 28 29 29 31 33 34 35 36 39 41 43 44 46 48 49 51 51 52 53 53 53 53 52 52 52 52
Wind_Direction_850mb
249 266 266 246 254 186 175 208 169 253 233 281 284 276 309 332 337 344 348 354 359 0 2 10 15 20 24 27 29 35 42 51 58 71 44 196 223 222 215 216 218 215 221 230
292 294 330 292 290 174 194 213 277 266 280 225 268 303 308 330 330 337 345 353 354 356 3 5 12 11 15 22 27 33 41 46 53 66 59 219 234 215 219 228 217 242 223 229
273 318 311 313 208 197 222 201 177 235 236 260 295 307 316 322 319 331 339 349 350 355 357 6 8 6 9 16 23 31 37 44 46 62 64 64 58 225 225 223 239 247 228 211
279 334 3 241 207 197 220 251 222 263 264 255 273 300 304 309 296 322 334 338 345 352 352 6 6 5 9 13 19 29 36 39 42 50 56 61 68 74 155 191 209 228 231 241
359 215 287 287 201 194 167 286 221 224 257 270 288 308 308 298 280 316 323 330 337 346 349 359 5 7 8 12 15 21 34 39 39 41 48 54 73 84 98 114 177 195 215 218
103 310 258 235 184 137 118 281 215 208 234 239 270 334 263 286 306 313 314 325 332 346 348 352 9 10 8 14 15 20 22 29 35 39 43 50 59 79 90 107 118 130 155 182
211 244 280 234 149 137 83 246 197 210 236 234 194 250 292 299 304 306 310 321 327 335 343 356 12 14 16 17 24 23 19 14 27 42 43 40 53 71 98 103 113 121 121 133
140 307 289 154 128 162 219 197 220 220 248 252 269 285 283 288 294 298 301 309 315 323 340 357 10 14 15 19 25 21 20 18 16 30 43 43 45 62 78 91 109 110 107 111
186 220 202 182 226 238 261 249 241 247 280 272 275 280 285 282 287 293 295 299 304 311 329 346 359 3 8 13 18 18 16 17 23 23 28 42 44 48 60 70 78 74 85 86
34 265 242 246 249 260 273 272 260 268 285 274 278 288 283 277 281 286 291 289 287 291 301 320 330 343 350 0 7 9 11 13 18 22 27 28 49 52 55 50 52 49 48 57
264 281 280 275 271 288 279 280 268 257 268 275 280 283 281 278 277 278 279 281 275 278 284 297 306 324 330 338 349 355 359 5 12 15 22 27 29 53 53 58 57 48 41 51
224 237 225 251 296 304 288 293 252 244 255 277 281 287 281 275 275 272 270 272 268 270 277 286 298 312 314 320 329 333 342 349 0 9 10 15 21 22 13 32 35 51 49 48
268 271 255 273 292 296 277 260 236 249 263 272 283 285 278 272 268 266 266 264 266 265 265 279 291 302 302 327 333 331 331 332 337 349 355 357 2 7 5 336 319 320 328 343
254 268 282 287 282 301 270 250 250 256 265 276 284 287 283 273 265 262 261 264 259 257 260 269 271 287 299 322 327 330 332 327 324 324 331 338 342 341 343 344 341 337 320 333
257 261 269 275 277 282 274 256 249 262 272 281 289 293 287 280 265 262 256 245 249 253 252 251 258 270 289 305 315 322 324 319 313 308 310 309 316 319 322 326 330 333 336 329
272 273 268 266 274 271 263 255 256 264 273 286 295 295 289 284 267 253 243 241 246 246 238 242 254 267 278 288 299 308 313 312 308 301 300 299 300 299 300 306 310 316 323 329
267 269 271 272 272 273 264 262 256 264 277 288 296 291 286 281 278 261 249 247 248 245 239 243 249 256 271 282 287 293 300 303 299 295 297 293 293 292 288 288 291 297 296 297
275 272 273 272 271 271 261 251 252 267 281 290 292 286 283 281 279 276 270 252 246 246 241 246 248 254 264 270 276 281 285 288 288 286 287 290 290 288 281 274 273 278 276 269
283 276 276 267 255 254 250 245 255 268 281 289 287 285 280 278 278 273 265 260 251 243 242 243 250 257 260 265 273 276 278 280 280 280 283 285 284 280 280 276 268 266 269 273
284 274 272 257 241 245 246 247 256 270 280 286 283 281 280 273 273 271 262 257 254 252 246 252 260 259 260 267 270 267 269 272 274 276 279 282 278 272 270 273 274 268 260 262
283 274 270 253 244 242 242 246 257 271 278 282 279 277 275 273 270 269 267 264 260 259 260 260 261 264 268 273 274 272 271 269 268 270 272 275 270 262 263 265 265 263 262 259
282 277 271 252 240 240 241 246 257 267 276 279 277 274 271 268 269 270 270 273 269 267 268 269 269 270 272 274 272 279 276 266 267 267 265 265 263 267 267 267 266 270 267 262
281 277 263 244 241 241 237 247 259 270 279 282 277 272 271 273 272 275 278 278 279 278 278 275 273 276 276 272 268 268 271 272 272 268 266 266 268 268 268 264 267 270 268 265
284 272 255 235 230 231 238 248 260 273 279 275 269 270 275 278 278 282 284 285 284 278 274 281 287 286 281 271 267 266 267 268 268 269 268 268 269 269 269 270 266 264 265 268
273 255 241 237 236 236 233 246 262 271 270 262 267 274 276 280 286 287 285 288 288 283 281 279 278 272 264 268 268 267 266 266 266 267 269 270 268 267 267 266 265 264 266 268
263 255 245 237 227 226 238 254 264 268 265 266 268 274 280 285 290 292 294 295 296 295 289 290 285 279 267 260 262 265 268 270 271 270 270 270 270 268 267 266 264 264 264 266
246 236 229 223 223 233 247 257 263 263 259 272 285 280 287 296 297 297 299 301 299 297 294 292 288 283 281 280 276 274 272 270 269 270 268 266 266 267 267 267 267 267 266 265